Вернуться в каталог

FENGYUN 1C DEB

LostPO
NORAD 31981·DEBRIS·🇨🇳 China

Запущен May 10, 1999 с Taiyuan Satellite Launch Center

Loading…

Ближайшие Пролёты (ближайшие 24 часа)

TLE

УстаревшееSource: Space-Track

Эпоха: Aug 28, 2022, 03:43 UTC

1 31981U 99025CPJ 22240.15515919  .00001119  00000-0  15386-2 0  9990
2 31981  98.4378   8.2853 0391386 285.5445  70.2807 13.32945992737088

Отслеживайте FENGYUN 1C DEB в реальном времени с AllMySat

Download on the App Store